Location: Maiden
(35.5760°N, 81.2120°W)
Time: 03:37:15
(UTC-04:00)

Vanguard 2 - Pass Details

Date: 05 August 2020
Orbit: 553 x 2937 km, 32.9° (Epoch: 20 September)

Event Time Altitude Azimuth Distance (km) Brightness Sun altitude
Rises 02:52:54 0° 274° (W) 5,246 11.6 -34.1°
Enters shadow 02:53:58 - 273° (W) 4,893 11.4 -34.0°
Reaches altitude 10° 02:57:02 10° 272° (W) 3,850 - -33.8°
Maximum altitude 03:06:10 65° 193° (SSW) 1,166 - -32.9°
Drops below altitude 10° 03:11:39 10° 112° (ESE) 2,366 - -32.4°
Exits shadow 03:12:30 - 110° (ESE) 2,680 10.4 -32.3°
Sets 03:13:39 0° 109° (ESE) 3,118 10.8 -32.2°
